Flag for Germany Weather past 2 weeks in Ettlingen, Baden-Württemberg, Germany

Now
36 °F

Clear.


Feels Like: 32 °F
Forecast: 33 / 50 °F
Wind: 5 mph from Southwest

Location: Karlsruhe - Baden Wurttemberg

Current Time: Mar 1, 2015 at 12:05:54 AM

Latest Report: Feb 28, 2015 at 10:50 PM


Visibility: 10 mi

Pressure: 30.01 "Hg

Humidity: 81%

Dew point: 30 °F

Location of EttlingenLocation

Historic Weather in Ettlingen — Graph

°F

Ettlingen temperature yesterday

Maximum temperature yesterday: 46 °F (at 12:50 PM)
Minimum temperature yesterday: 30 °F (at 6:20 AM)
Average temperature yesterday: 39 °F

Past Weeks' High & Low Weather Summary

 TemperatureHumidityPressure
High57 °F (Feb 20, 1:50 PM)100% (Feb 13, 10:20 PM)30.72 "Hg (Feb 13, 10:20 PM)
Low23 °F (Feb 20, 5:20 AM)31% (Feb 20, 3:50 PM)29.50 "Hg (Feb 21, 6:20 AM)
Average38 °F79%30.04 "Hg
* Reported Feb 13 10:20 PM — Feb 28 10:50 PM, Ettlingen, Weather by CustomWeather, © 2015

Note: Actual official high and low records may vary slightly from our data, if they occured in-between our weather recording intervals... More about our weather records

Advertising

Ettlingen weather history for previous 24 hours

 ConditionsComfort  
Time TempWeatherWind HumidityBarometerVisibility
10:50 PM
Sat, Feb 28
36 °FClear.5 mph81%30.01 "Hg10 mi
10:20 PM36 °FClear.6 mph75%30.01 "Hg10 mi
9:50 PM36 °FClear.7 mph75%30.01 "Hg10 mi
9:20 PM36 °FClear.7 mph75%30.04 "Hg10 mi
8:50 PM36 °FClear.5 mph75%30.04 "Hg10 mi
8:20 PM36 °FClear.5 mph75%30.04 "Hg10 mi
7:50 PM37 °FClear.3 mph70%30.07 "Hg10 mi
7:20 PM39 °FClear.5 mph61%30.07 "Hg10 mi
6:50 PM39 °FClear.5 mph61%30.07 "Hg10 mi
6:20 PM43 °FClear.3 mph53%30.07 "Hg10 mi
5:50 PM43 °FSunny.5 mph53%30.07 "Hg10 mi
5:20 PM43 °FSunny.7 mph53%30.07 "Hg10 mi
4:50 PM46 °FSunny.8 mph46%30.07 "Hg10 mi
4:20 PM46 °FPassing clouds.9 mph43%30.09 "HgN/A
3:50 PM46 °FPassing clouds.7 mph46%30.09 "HgN/A
3:20 PM46 °FScattered clouds.6 mph46%30.09 "HgN/A
2:50 PM46 °FSunny.8 mph46%30.09 "Hg10 mi
2:20 PM46 °FSunny.5 mph50%30.09 "Hg10 mi
1:50 PM46 °FPassing clouds.7 mph46%30.12 "HgN/A
1:20 PM46 °FPassing clouds.5 mph43%30.12 "HgN/A
12:50 PM46 °FPassing clouds.6 mph53%30.15 "HgN/A
12:20 PM45 °FPassing clouds.5 mph61%30.15 "HgN/A
11:50 AM43 °FPassing clouds.5 mph71%30.18 "HgN/A
11:20 AM43 °FSunny.2 mph71%30.18 "Hg10 mi
10:50 AM41 °FPassing clouds.5 mph76%30.18 "HgN/A
10:20 AM41 °FPassing clouds.5 mph76%30.18 "HgN/A
9:50 AM39 °FSunny.6 mph81%30.18 "Hg10 mi
9:20 AM37 °FSunny.3 mph93%30.18 "Hg10 mi
8:50 AM34 °FSunny.2 mph93%30.21 "Hg10 mi
8:20 AM32 °FSunny.1 mph93%30.18 "Hg10 mi
7:50 AM30 °FFog.2 mph93%30.18 "HgN/A
7:20 AM32 °FFog.2 mph93%30.18 "HgN/A
6:50 AM30 °FFog.2 mph100%30.18 "HgN/A
6:20 AM30 °FLight fog.3 mph100%30.18 "Hg6 mi
5:50 AM32 °FPassing clouds.3 mph93%30.18 "Hg6 mi
5:20 AM32 °FPassing clouds.3 mph93%30.18 "Hg6 mi
Weather by CustomWeather, © 2015

See weather overviewHow to use our weather pages